This is the latest recevied weather packets stored in our database for station/object PD2BVG. If no packets are shown the sender has not sent any weather packets the latest 10 day(s).
| Time | Temp. | Humidity | Pressure | Rain* | Wind** | Luminosity | Snow |
|---|---|---|---|---|---|---|---|
| 1787754393 | 25.56° C | 68% | 1014.2 hPa | 0 mm | - | 475 W/m² | - |
| 1787754332 | 25° C | 67% | 1014.2 hPa | 0 mm | - | 461 W/m² | - |
| 1787754271 | 25° C | 69% | 1014.3 hPa | 0 mm | - | 466 W/m² | - |
| 1787754211 | 25° C | 69% | 1014.3 hPa | 0 mm | - | 498 W/m² | - |
| 1787754150 | 25° C | 68% | 1014.3 hPa | 0 mm | - | 508 W/m² | - |
| 1787754091 | 25° C | 68% | 1014.3 hPa | 0 mm | - | 501 W/m² | - |
| 1787754030 | 25° C | 67% | 1014.2 hPa | 0 mm | - | 448 W/m² | - |
| 1787753970 | 25° C | 67% | 1014.3 hPa | 0 mm | - | 181 W/m² | - |
| 1787753909 | 25° C | 68% | 1014.4 hPa | 0 mm | - | 141 W/m² | - |
| 1787753848 | 25.56° C | 68% | 1014.3 hPa | 0 mm | - | 111 W/m² | - |
| 1787753785 | 25.56° C | 68% | 1014.3 hPa | 0 mm | - | 109 W/m² | - |
| 1787753725 | 25° C | 68% | 1014.4 hPa | 0 mm | - | 519 W/m² | - |
| 1787753666 | 25° C | 68% | 1014.3 hPa | 0 mm | - | 519 W/m² | - |
| 1787753604 | 25° C | 68% | 1014.4 hPa | 0 mm | - | 519 W/m² | - |
| 1787753543 | 25° C | 68% | 1014.3 hPa | 0 mm | - | 519 W/m² | - |
| 1787753480 | 25° C | 68% | 1014.5 hPa | 0 mm | - | 519 W/m² | - |
| 1787753422 | 25° C | 68% | 1014.4 hPa | 0 mm | - | 519 W/m² | - |
| 1787753361 | 25° C | 68% | 1014.4 hPa | 0 mm | - | 528 W/m² | - |
| 1787753300 | 25° C | 67% | 1014.4 hPa | 0 mm | - | 109 W/m² | - |
| 1787753239 | 25.56° C | 67% | 1014.4 hPa | 0 mm | - | 107 W/m² | - |
| 1787753179 | 25.56° C | 67% | 1014.3 hPa | 0 mm | - | 130 W/m² | - |
| 1787753119 | 25.56° C | 68% | 1014.5 hPa | 0 mm | - | 531 W/m² | - |
| 1787753055 | 25.56° C | 68% | 1014.4 hPa | 0 mm | - | 253 W/m² | - |
| 1787752994 | 25° C | 67% | 1014.4 hPa | 0 mm | - | 536 W/m² | - |
| 1787752934 | 25° C | 67% | 1014.4 hPa | 0 mm | - | 510 W/m² | - |
* Rain latest hour (hover to see other rain measurements)
** Current wind speed in m/s (hover to see current wind gust speed)